Regional Weather Roundup
Issued by NWS Green Bay, WI

Home | Current Version | Previous Version | Text Only | Print | Product List | Glossary On
Versions: 1 2 3 4 5 6 7 8 9 10 11 12 13 14 15 16 17 18 19 20 21 22 23 24 25 26 27 28 29 30 31 32 33 34 35 36 37 38 39 40 41 42 43 44 45 46 47 48 49 50
000
ASUS43 KGRB 101100
RWRGRB

NORTH-CENTRAL AND NORTHEAST WISCONSIN REGIONAL WEATHER ROUNDUP
NATIONAL WEATHER SERVICE GREEN BAY WI
500 AM CST SUN DEC 10 2017

WIZ005-009-010>012-018-019-101200-
NORTH CENTRAL WISCONSIN

CITY           SKY/WX    TMP DP  RH WIND       PRES   REMARKS
IRONWOOD       CLOUDY    17  14  88 W8        29.78S WCI   7
MANITOWISH WTR NOT AVBL
ARBOR VITAE    NOT AVBL
EAGLE RIVER    NOT AVBL
LAND O LAKES   NOT AVBL
RHINELANDER    CLOUDY    13  11  92 W7        29.76S WCI   3
PHILLIPS       NOT AVBL
ANTIGO         NOT AVBL
TOMAHAWK       NOT AVBL
MERRILL        NOT AVBL
$$

WIZ013-073-101200-
NORTHEAST WISCONSIN

CITY           SKY/WX    TMP DP  RH WIND       PRES   REMARKS
IRON MOUNTAIN  CLOUDY    16  10  77 CALM      29.77R
MARINETTE      CLOUDY    16  12  84 CALM      29.85R
$$

WIZ017-030-035>037-045-101200-
CENTRAL WISCONSIN

CITY           SKY/WX    TMP DP  RH WIND       PRES   REMARKS
MEDFORD        NOT AVBL
WAUSAU         CLOUDY    15  11  83 SW5       29.79S WCI   8
MOSINEE        NOT AVBL
MARSHFIELD     CLOUDY    17  14  88 SW5       29.77F WCI  10
WISC RAPIDS    CLOUDY    19  14  81 S3        29.82F
STEVENS POINT  NOT AVBL
WAUPACA        NOT AVBL
SHAWANO        NOT AVBL
CLINTONVILLE   NOT AVBL
WAUTOMA        CLOUDY    19  13  77 CALM      29.84
$$

WIZ038-039-048-051-101200-
FOX VALLEY

CITY           SKY/WX    TMP DP  RH WIND       PRES   REMARKS
NWS GREEN BAY  CLOUDY    19  13  77 SW6       29.84S
APPLETON       NOT AVBL
OSHKOSH        CLOUDY    19  13  77 S9        29.84F WCI   8
FOND DU LAC    CLOUDY    20  12  71 SW10      29.85F WCI   9
$$

WIZ022-050-052-101200-
EAST CENTRAL WISCONSIN

CITY           SKY/WX    TMP DP  RH WIND       PRES   REMARKS
EPHRAIM        NOT AVBL
WASHINGTON ISL NOT AVBL
STURGEON BAY   CLOUDY    17  13  84 W5        29.84F WCI  10
MANITOWOC      CLOUDY    19  12  74 SW8       29.86F WCI   9
SHEBOYGAN      CLOUDY    19  13  77 SW8       29.86F WCI   9
$$

LMZ563-521-522-541>543-101200-
LAKESHORE

STATION/POSITION TIME  TEMP    WIND        PRES    VSBY  WAVE
                       AIR SEA DIR/SP/G                  HT/PER
                 (UTC) (F)     (DEG/KT/KT) (MB)    (MI)  (FT/S)
SHEBOYGAN LKSHOR 1000   19     210/  9/ 11 1013.0F
KEWAUNEE LKSHORE 1030   18     250/  5/  7 1010.0F
NORTHPORT PIER   1040   20     270/  4/ 10 1010.5S
MENOMINEE LKSHOR 1030   17     200/  2/  3 1010.6R
$$




USA.gov is the U.S. government's official web portal to all federal, state and local government web resources and services.